Location: Peebles
(55.6412°N, 3.1714°W)
Time: 15:49:26
(UTC+01:00)

Cosmos 1892 Rocket - Pass Details

Date: 26 September 2021
Orbit: 607 x 632 km, 82.5° (Epoch: 18 October)

Event Time Altitude Azimuth Distance (km) Brightness Sun altitude
Rises 22:08:48 0° 347° (NNW) 2,931 7.8 -25.5°
Reaches altitude 10° 22:11:03 10° 348° (NNW) 2,022 6.9 -25.7°
Enters shadow 22:14:56 67° 345° (NNW) 692 3.8 -26.2°
